This is the latest recevied weather packets stored in our database for station/object PE1RXF-13. If no packets are shown the sender has not sent any weather packets the latest 10 day(s).
| Time | Temp. | Humidity | Pressure | Rain* | Wind** | Luminosity | Snow |
|---|---|---|---|---|---|---|---|
| 1787886894 | 18.33° C | 99% | 1005.7 hPa | 0 mm | - | 0 W/m² | - |
| 1787885791 | 18.33° C | 99% | 1005.3 hPa | 0.25 mm | - | 0 W/m² | - |
| 1787884688 | 18.33° C | 99% | 1005.2 hPa | 0.25 mm | - | 0 W/m² | - |
| 1787883586 | 18.33° C | 99% | 1005.3 hPa | 0.25 mm | - | 0 W/m² | - |
| 1787882482 | 18.33° C | 99% | 1006.1 hPa | 0.25 mm | - | 0 W/m² | - |
| 1787880276 | 18.89° C | 99% | 1006.6 hPa | 1.78 mm | - | 0 W/m² | - |
| 1787879173 | 18.89° C | 99% | 1006.3 hPa | 1.78 mm | - | 0 W/m² | - |
| 1787878070 | 18.89° C | 99% | 1006.2 hPa | 0.25 mm | - | 0 W/m² | - |
| 1787876967 | 20° C | 99% | 1007.5 hPa | 0.25 mm | - | 0 W/m² | - |
| 1787875864 | 20° C | 99% | 1007.7 hPa | 0.25 mm | - | 0 W/m² | - |
| 1787874761 | 20° C | 99% | 1007.1 hPa | 0 mm | - | 0 W/m² | - |
| 1787873658 | 20.56° C | 99% | 1006.4 hPa | 0 mm | - | 0 W/m² | - |
| 1787872555 | 22.22° C | 99% | 1007.1 hPa | 0 mm | - | 0 W/m² | - |
| 1787871452 | 22.22° C | 94% | 1007.1 hPa | 0 mm | - | 0 W/m² | - |
| 1787870349 | 22.78° C | 91% | 1007 hPa | 0 mm | - | 0 W/m² | - |
| 1787869246 | 22.78° C | 90% | 1007.1 hPa | 0 mm | - | 0 W/m² | - |
| 1787868143 | 22.78° C | 89% | 1007.2 hPa | 0 mm | - | 0 W/m² | - |
| 1787867040 | 22.78° C | 90% | 1007.2 hPa | 0 mm | - | 0 W/m² | - |
| 1787865937 | 22.78° C | 91% | 1007.4 hPa | 0 mm | - | 0 W/m² | - |
| 1787864834 | 22.78° C | 90% | 1007.6 hPa | 0 mm | - | 0 W/m² | - |
| 1787863731 | 22.78° C | 90% | 1007.7 hPa | 0 mm | - | 0 W/m² | - |
| 1787862628 | 22.78° C | 91% | 1007.7 hPa | 0 mm | - | 0 W/m² | - |
| 1787861525 | 22.78° C | 91% | 1008 hPa | 0 mm | - | 0 W/m² | - |
| 1787860422 | 22.22° C | 98% | 1008.2 hPa | 0 mm | - | 0 W/m² | - |
| 1787859319 | 21.67° C | 99% | 1008.3 hPa | 0 mm | - | 0 W/m² | - |
* Rain latest hour (hover to see other rain measurements)
** Current wind speed in m/s (hover to see current wind gust speed)